Regional Weather Roundup
Issued by NWS Cleveland, OH

Home | Current Version | Previous Version | Graphics & Text | Print | Product List | Glossary On
Versions: 1 2 3 4 5 6 7 8 9 10 11 12 13 14 15 16 17 18 19 20 21 22 23 24 25 26 27 28 29 30 31 32 33 34 35 36 37 38 39 40 41 42 43 44 45 46 47 48 49 50
000
ASUS41 KCLE 252000
RWRCLE
OHIO REGIONAL WEATHER ROUNDUP
NATIONAL WEATHER SERVICE WILMINGTON, OH
300 PM EST THU DEC 25 2014

NOTE: "FAIR" INDICATES FEW OR NO CLOUDS BELOW 12,000 FEET WITH NO
SIGNIFICANT WEATHER AND/OR OBSTRUCTIONS TO VISIBILITY.

OHZ001>008-015>018-024>027-034-035-043-044-252100-
   NORTHWEST OHIO

CITY           SKY/WX    TMP DP  RH WIND       PRES   REMARKS
DEFIANCE       CLOUDY    38  30  73 SW13      30.05R
FINDLAY        CLOUDY    39  31  72 W15G24    30.05R
TOLEDO EXPRESS CLOUDY    37  30  75 W21       30.03R
TOLEDO METCALF CLOUDY    39  29  67 SW14G26   30.04R
LIMA           CLOUDY    39  30  70 SW17      30.06R
$$

OHZ009>014-019>023-028>033-038-089-252100-
   NORTHEAST OHIO

CITY           SKY/WX    TMP DP  RH WIND       PRES   REMARKS
CLE-HOPKINS    CLOUDY    39  30  70 SW17      30.07R
CLE-LAKEFRONT  CLOUDY    41  30  65 SW22G28   30.04R
CUY CO. ARPT   CLOUDY    41  32  70 W16G26    30.04R
LORAIN-ELYRIA  CLOUDY    38  30  73 W20       30.05R
ASHTABULA      CLOUDY    40  29  64 W16G22    30.02R
AKRON-CANTON   CLOUDY    39  28  64 W14G24    30.03R
WOOSTER        NOT AVBL
MANSFIELD      CLOUDY    37  29  72 SW13      30.04R
YOUNGSTOWN     CLOUDY    38  30  73 W16G24    30.02R
$$

OHZ042-051>053-060>062-070>072-077>081-252100-
  SOUTHWEST OHIO

CITY           SKY/WX    TMP DP  RH WIND       PRES   REMARKS
CINC-COVINGTON CLOUDY    40  30  67 SW8       30.12R
CINC-LUNKEN    CLOUDY    41  34  76 SW10      30.15R
HAMILTON       CLOUDY    42  31  64 SW10G20   30.13R
DAYTON         NOT AVBL
WRIGHT-PAT AFB CLOUDY    39  31  72 SW16      30.10R
DAYTON GENERAL CLOUDY    40  32  73 SW10      30.09R
WILMINGTON     CLOUDY    39  31  72 SW17      30.08F
$$

OHZ036-037-039>041-045>050-054>059-063>069-073>076-082>088-252100-
  CENTRAL AND SOUTHEAST OHIO

CITY           SKY/WX    TMP DP  RH WIND       PRES   REMARKS
COLUMBUS       CLOUDY    40  31  70 SW13      30.09R
OSU AIRPORT    CLOUDY    40  30  67 SW13      30.08R
BOLTON FIELD   CLOUDY    39  32  75 SW14      30.10R
RICKENBACK AFB NOT AVBL
NEWARK         CLOUDY    41  31  67 SW12      30.08S
MARION         CLOUDY    39  29  67 SW15      30.07R
LANCASTER      CLOUDY    40  34  79 SW13G22   30.11R
ZANESVILLE     CLOUDY    39  28  64 SW7       30.10R
NEW PHILLY     CLOUDY    41  28  60 W7G20     30.07S
$$


USA.gov is the U.S. government's official web portal to all federal, state and local government web resources and services.